{"data":{"norad_id":64909,"epoch":"2026-09-20T06:06:43.132032Z","epoch_age_seconds":145367,"freshness":"FRESH","line1":"1 64909U 25157F   26263.25466588  .00014686  00000+0  44484-3 0  9992","line2":"2 64909  53.1590 159.0189 0001149  85.2978 274.8156 15.34406164 65907","mean_motion":15.34406164,"eccentricity":0.0001149,"inclination_deg":53.159,"raan_deg":159.0189,"arg_perigee_deg":85.2978,"mean_anomaly_deg":274.8156,"bstar":0.00044484,"rev_number":6590,"period_min":93.847381077127,"perigee_km":461.89890912288,"apogee_km":463.47092999999,"semimajor_km":6840.8219195614,"source":"CELESTRAK","updated_at":"2026-09-21T09:00:35.454665Z"}}